Home   Weather   Mamëzit Mali i   Past weeks
Flag for Albania

Past Weather in Mamëzit Mali i, Albania — Yesterday and Last 2 Weeks

Now
90 °F

Passing clouds.


Feels Like: 98 °F
Forecast: 86 / 66 °F
Wind: 5 mph from Northwest

Location: Tirana Airport

Current Time: Jun 18, 2019 at 12:56:56 pm

Latest Report: Jun 18, 2019 at 12:20 pm


Visibility: 6 mi

Pressure: 29.92 "Hg

Humidity: 59%

Dew Point: 73 °F

Location of Mamëzit Mali iLocation

Past Weather in Mamëzit Mali i — Graph

°F

Mamëzit Mali i Temperature Yesterday

Maximum temperature yesterday: 91 °F (at 3:20 pm)
Minimum temperature yesterday: 70 °F (at 5:20 am)
Average temperature yesterday: 79 °F

High & Low Weather Summary for the Past Weeks

 TemperatureHumidityPressure
High97 °F (Jun 15, 1:20 pm)94% (Jun 3, 11:20 am)30.12 "Hg (Jun 3, 11:20 am)
Low61 °F (Jun 3, 11:20 am)36% (Jun 8, 4:50 pm)29.80 "Hg (Jun 10, 5:20 pm)
Average76 °F70%29.96 "Hg
* Reported Jun 3 11:20 am — Jun 18 11:50 am, Mamëzit Mali i. Weather by CustomWeather, © 2019

Note: Actual official high and low records may vary slightly from our data, if they occured in-between our weather recording intervals... More about our weather records

Advertising

Mamëzit Mali i Weather History for the Previous 24 Hours

Scroll right to see more
 ConditionsComfort  
Time TempWeatherWind HumidityBarometerVisibility
11:50 am
Tue, Jun 18
86 °FPassing clouds.3 mph55%29.92 "HgN/A
11:20 am86 °FPassing clouds.3 mph59%29.92 "HgN/A
10:50 am84 °FPassing clouds.5 mph58%29.95 "HgN/A
10:20 am82 °FSunny.3 mph62%29.95 "Hg10 mi
9:50 am82 °FPassing clouds.3 mph62%29.95 "HgN/A
9:20 am82 °FSunny.No wind55%29.95 "Hg10 mi
8:50 am82 °FSunny.No wind58%29.95 "Hg10 mi
8:20 am77 °FPassing clouds.3 mph65%29.95 "HgN/A
7:50 am75 °FSunny.3 mph69%29.95 "Hg10 mi
7:20 am75 °FSunny.3 mph74%29.92 "Hg10 mi
6:50 am72 °FPartly sunny.5 mph78%29.92 "HgN/A
6:20 am70 °FPartly sunny.5 mph88%29.92 "HgN/A
5:50 am70 °FPartly sunny.3 mph88%29.92 "HgN/A
5:20 am70 °FScattered clouds.3 mph83%29.92 "HgN/A
4:50 am70 °FPassing clouds.3 mph88%29.92 "HgN/A
4:20 am70 °FClear.5 mph88%29.89 "Hg10 mi
3:59 am70 °FClear.1 mph88%29.89 "Hg10 mi
3:20 am70 °FPassing clouds.2 mph94%29.89 "HgN/A
2:50 am70 °FClear.3 mph94%29.89 "Hg10 mi
2:20 am72 °FPassing clouds.5 mph88%29.89 "HgN/A
1:50 am72 °FClear.3 mph88%29.92 "Hg10 mi
1:20 am72 °FPassing clouds.3 mph88%29.92 "HgN/A
12:50 am73 °FPassing clouds.3 mph83%29.92 "HgN/A
12:20 am72 °FPartly cloudy.No wind88%29.92 "HgN/A
11:50 pm
Mon, Jun 17
73 °FPartly cloudy.5 mph83%29.89 "HgN/A
11:20 pm73 °FOvercast.2 mph83%29.92 "HgN/A
10:50 pm72 °FPassing clouds.8 mph88%29.89 "HgN/A
10:20 pm75 °FPassing clouds.3 mph74%29.89 "HgN/A
9:50 pm75 °FPassing clouds.2 mph83%29.89 "HgN/A
9:20 pm75 °FPassing clouds.2 mph83%29.92 "HgN/A
8:50 pm75 °FThundershowers. Overcast.7 mph78%29.92 "HgN/A
8:20 pm81 °FPartly cloudy.3 mph70%29.89 "HgN/A
7:50 pm79 °FPartly sunny.3 mph70%29.89 "HgN/A
7:20 pm81 °FScattered clouds.3 mph66%29.86 "HgN/A
6:50 pm82 °FScattered clouds.5 mph66%29.86 "HgN/A
6:20 pm81 °FPartly sunny.6 mph66%29.86 "HgN/A
5:50 pm81 °FPartly sunny.7 mph66%29.86 "HgN/A
5:20 pm82 °FPartly sunny.7 mph66%29.86 "HgN/A
4:50 pm81 °FPartly sunny.7 mph70%29.86 "HgN/A
4:20 pm86 °FPartly sunny.9 mph66%29.86 "HgN/A
3:50 pm91 °FScattered clouds.5 mph56%29.86 "HgN/A
3:20 pm91 °FScattered clouds.7 mph52%29.86 "HgN/A
2:50 pm90 °FThunderstorms. Scattered clouds.5 mph59%29.86 "HgN/A
1:50 pm90 °FPassing clouds.7 mph55%29.86 "HgN/A
1:20 pm88 °FPassing clouds.6 mph59%29.89 "HgN/A
12:50 pm88 °FPassing clouds.5 mph62%29.89 "HgN/A
12:20 pm90 °FPassing clouds.1 mph59%29.89 "HgN/A
Weather by CustomWeather, © 2019

See weather overview